Regional Weather Roundup
Issued by NWS Sioux Falls, SD

Home | Current Version | Previous Version | Text Only | Print | Product List | Glossary Off
Versions: 1 2 3 4 5 6 7 8 9 10 11 12 13 14 15 16 17 18 19 20 21 22 23 24 25 26 27 28 29 30 31 32 33 34 35 36 37 38 39 40 41 42 43 44 45 46 47 48 49 50

000
ASUS43 KFSD 042002
RWRFSD

WEATHER ROUNDUP FOR SE SOUTH DAKOTA/SW MINNESOTA/NW IOWA
NATIONAL WEATHER SERVICE SIOUX FALLS SD
200 PM CST WED MAR 04 2015

NOTE: "FAIR" INDICATES FEW OR NO CLOUDS BELOW 12,000 FEET WITH NO
SIGNIFICANT WEATHER AND OR OBSTRUCTIONS TO VISIBILITY.


SDZ038>040-050-052>070-042100-
SOUTHEAST SOUTH DAKOTA

CITY           SKY/WX    TMP DP  RH WIND       PRES   REMARKS
CHAMBERLAIN    NOT AVBL
HURON          CLOUDY     7  -6  55 NW18G28   30.36  WCI -12
MADISON        FAIR       5  -4  66 NW22      30.27F WCI -16
MITCHELL       MOSUNNY   11  -3  53 NW16G31   30.35  WCI  -6
SIOUX FALLS    PTSUNNY   10  -2  58 NW18G28   30.29S WCI  -8
WINNER         CLOUDY    14  -2  49 NW21      30.30  WCI  -4
YANKTON        SUNNY    N/A N/A N/A NW25G33   30.33S
$$

MNZ071-072-080-081-089-090-097-098-042100-
SOUTHWEST MINNESOTA

CITY           SKY/WX    TMP DP  RH WIND       PRES   REMARKS
FAIRMONT       CLOUDY    12   1  62 NW18      30.22S WCI  -5
JACKSON        PTSUNNY   14   3  62 NW20      30.23R WCI  -3
LUVERNE        MOSUNNY   12   1  62 NW17G25   30.27S WCI  -5
MARSHALL       PTSUNNY    9  -6  52 NW20      30.29F WCI -11
MONTEVIDEO     MOSUNNY    9  -4  56 NW15G28   30.32R WCI  -8
PIPESTONE      MOSUNNY    9   0  66 N16G29    30.24S HAZE    WCI  -9
REDWOOD FALLS  CLOUDY    11  -4  51 NW17G23   30.27F WCI  -6
TRACY          CLOUDY    11   1  64 NW15G22   30.26F WCI  -6
WINDOM         PTSUNNY   10   1  67 NW20      30.24S HAZE    WCI  -8
WORTHINGTON    CLOUDY    10   0  61 NW21      30.25R WCI  -9
$$

IAZ001>003-012>014-020>022-031-032-NEZ013-014-SDZ071-042100-
NORTHWEST IOWA

CITY           SKY/WX    TMP DP  RH WIND       PRES   REMARKS
DENISON        SUNNY     23   1  39 NW21G28   30.24S WCI   8
ESTHERVILLE    CLOUDY    14   5  67 NW20      30.23  WCI  -3
SIOUX CITY     SUNNY     23   0  36 NW24G39   30.28F WCI   7
SPENCER        PTSUNNY   17   2  51 NW20G32   30.24  WCI   1
$$

ABBREVIATIONS USED IN REMARKS
   TC - TEMPERATURE IN CELSIUS
  WCI - WIND CHILL INDEX
   HX - HEAT INDEX
  VSB - VISIBILITY




USA.gov is the U.S. government's official web portal to all federal, state and local government web resources and services.